Home > Weather > Amberg > Past weeks

Flag for Germany Past Weather in Amberg, Bavaria, Germany — Yesterday and Last 2 Weeks

Now
61 °F

Fog.


Feels Like: 61 °F
Forecast: 55 / 75 °F
Wind: No wind

Location: Grafenwoehr

Current Time: Jul 27, 2016 at 8:00:29 AM

Latest Report: Jul 27, 2016 at 4:55 AM


Visibility: 1 mi

Pressure: 30.06 "Hg

Humidity: 100%

Dew Point: 61 °F

Location of AmbergLocation

Past Weather in Amberg — Graph

°F

Amberg Temperature Yesterday

Maximum temperature yesterday: 77 °F (at 3:58 PM)
Minimum temperature yesterday: 63 °F (at 1:58 AM)
Average temperature yesterday: 69 °F

High & Low Weather Summary for the Past Weeks

 TemperatureHumidityPressure
High86 °F (Jul 20, 4:58 PM)100% (Jul 12, 5:58 AM)30.31 "Hg (Jul 12, 5:58 AM)
Low46 °F (Jul 15, 12:58 AM)32% (Jul 19, 3:58 PM)29.85 "Hg (Jul 13, 1:58 PM)
Average65 °F79%30.06 "Hg
* Reported Jul 12 4:58 AM — Jul 27 4:55 AM, Amberg, Weather by CustomWeather, © 2016

Note: Actual official high and low records may vary slightly from our data, if they occured in-between our weather recording intervals... More about our weather records

Advertising

Amberg Weather History for the Previous 24 Hours

Scroll right to see more
 ConditionsComfort  
Time TempWeatherWind HumidityBarometerVisibility
4:55 AM
Wed, Jul 27
61 °FFog.No wind100%30.06 "Hg1 mi
2:59 AM61 °FFog.No wind100%30.09 "Hg1 mi
2:56 AM61 °FFog.No wind100%30.09 "Hg1 mi
2:53 AM61 °FFog.No wind100%30.09 "Hg2 mi
1:58 AM60 °FFog.No wind100%30.06 "Hg6 mi
12:58 AM61 °FFog.No wind100%30.08 "Hg5 mi
11:58 PM
Tue, Jul 26
63 °FPassing clouds.No wind100%30.08 "HgN/A
10:58 PM66 °FOvercast.No wind94%30.08 "HgN/A
9:58 PM66 °FOvercast.No wind94%30.09 "HgN/A
8:58 PM68 °FPassing clouds.No wind94%30.06 "HgN/A
7:58 PM70 °FPassing clouds.No wind83%30.06 "HgN/A
6:58 PM70 °FLight rain. Overcast.3 mph78%30.06 "HgN/A
5:58 PM73 °FPartly sunny.6 mph65%30.07 "HgN/A
4:58 PM77 °FBroken clouds.1 mph65%30.06 "HgN/A
3:58 PM77 °FScattered clouds.1 mph61%30.06 "HgN/A
2:58 PM75 °FScattered clouds.3 mph61%30.05 "HgN/A
1:58 PM73 °FPassing clouds.3 mph69%30.06 "HgN/A
12:58 PM75 °FPassing clouds.No wind65%30.06 "HgN/A
11:58 AM75 °FScattered clouds.No wind61%30.06 "HgN/A
10:58 AM72 °FScattered clouds.No wind78%30.08 "HgN/A
9:58 AM70 °FBroken clouds.1 mph83%30.08 "HgN/A
8:58 AM66 °FPartly sunny.No wind88%30.07 "HgN/A
Weather by CustomWeather, © 2016

See weather overviewHow to use our weather pages